Location: Betz
(49.1556°N, 2.9558°E)
Time: 06:19:22
(UTC+00:00)

KORONAS-FOTON - Pass Details

Date: 18 September 2019
Orbit: 505 x 533 km, 82.4° (Epoch: 18 October)

Event Time Altitude Azimuth Distance (km) Brightness Sun altitude
Rises 20:11:09 0° 350° (N) 2,630 8.0 -21.9°
Reaches altitude 10° 20:13:17 10° 351° (N) 1,736 7.0 -22.2°
Enters shadow 20:16:42 70° 4° (N) 544 3.8 -22.6°
